#timestamp,LO_Frequency,Hit 
1498438815.6,286047010.8,N
1498438835.4,286047011.7,N
1498438855.2,286047009.4,N
1498438875.0,286047010.1,N
1498438876.0,286047010.1,N
1498438895.8,286047008.2,N
1498438915.6,286047008.5,N
1498438935.4,286047008.4,N
1498438955.3,286047008.4,N
1498438975.1,286047008.8,N
1498438995.8,286047008.4,N
1498439015.7,286047009.1,N
1498439035.5,286047009.1,N
1498439055.3,286047006.2,N
1498439075.2,286047006.3,N
1498439095.9,286047006.5,N
1498439115.7,286047009.2,N
1498439135.5,286047010.4,N
1498439155.4,286047009.9,N
1498439175.2,286047011.9,N
1498439195.0,286047012.2,N
1498439195.9,286047012.2,N
1498439215.8,286047008.1,N
1498439235.6,286047008.1,N
1498439255.4,286047008.3,N
1498439275.3,286047008.3,N
1498439295.1,286047008.3,N
1498439315.8,286047006.7,N
1498439335.7,286047007.6,N
1498439355.5,286047006.9,N
1498439375.3,286047007.1,N
1498439395.2,286047007.6,N
1498439415.9,286047005.0,N
1498439435.7,286047004.6,N
1498439455.5,286047004.6,N
1498439475.4,286047007.1,N
1498439495.2,286047006.8,N
1498439515.0,286047007.3,N
1498439515.9,286047007.3,N
1498439535.8,286047007.0,N
1498439555.6,286047007.1,N
1498439575.4,286047006.8,N
1498439595.3,286047006.4,N
1498439615.1,286047006.7,N
1498439635.8,286047007.6,N
1498439655.7,286047007.4,N
1498439675.5,286047007.2,N
1498439695.3,286047006.9,N
1498439715.2,286047009.1,N
1498439735.9,286047008.0,N
1498439755.7,286047012.3,N
1498439775.6,286047010.2,N
1498439795.4,286047010.4,N
1498439815.2,286047010.8,N
1498439835.0,286047010.8,N
1498439835.9,286047010.8,N
1498439855.8,286047008.4,N
1498439875.6,286047008.0,N
1498439895.4,286047009.5,N
1498439915.3,286047010.2,N
1498439935.1,286047011.9,N
1498439955.8,286047011.4,N
1498439975.7,286047011.1,N
1498439995.5,286047013.5,N
1498440015.3,286047013.0,N
1498440035.2,286047011.0,N
1498440055.9,286047012.0,N
1498440075.7,286047011.3,N
1498440095.6,286047013.6,N
1498440115.4,286047012.9,N
1498440135.2,286047015.6,N
1498440155.0,286047013.2,N
1498440156.0,286047013.2,N
1498440175.8,286047012.2,N
1498440195.6,286047011.5,N
1498440215.4,286047013.2,N
1498440235.3,286047010.9,N
1498440255.1,286047013.7,N
1498440275.8,286047013.6,N
1498440295.7,286047013.9,N
1498440315.5,286047011.9,N
1498440335.3,286047011.6,N
1498440355.2,286047012.1,N
1498440375.9,286047011.7,N
1498440395.7,286047010.7,N
1498440415.6,286047009.8,N
1498440435.4,286047011.8,N
1498440455.2,286047011.7,N
1498440475.0,286047009.6,N
1498440475.9,286047009.6,N
1498440495.8,286047009.7,N
1498440515.6,286047009.6,N
1498440535.4,286047009.3,N
1498440555.3,286047012.0,N
1498440575.1,286047012.1,N
1498440595.8,286047012.0,N
1498440615.7,286047012.2,N
1498440635.5,286047011.6,N
1498440655.3,286047009.9,N
1498440675.2,286047010.3,N
1498440695.9,286047010.6,N
1498440715.7,286047010.7,N
1498440735.6,286047007.9,N
1498440755.4,286047007.8,N
1498440775.2,286047008.3,N
1498440795.0,286047007.8,N
1498440796.0,286047007.8,N
1498440815.8,286047010.7,N
1498440835.6,286047007.9,N
1498440855.4,286047007.7,N
1498440875.3,286047009.5,N
1498440895.1,286047010.1,N
1498440915.8,286047011.9,N
1498440935.7,286047009.3,N
1498440955.5,286047011.1,N
1498440975.3,286047013.5,N
1498440995.2,286047011.5,N
1498441015.9,286047013.9,N
1498441035.7,286047012.7,N
1498441055.6,286047013.4,N
1498441075.4,286047014.2,N
1498441095.2,286047015.7,N
1498441115.0,286047015.8,N
1498441115.9,286047015.8,N
1498441135.8,286047018.7,N
1498441155.6,286047015.9,N
1498441175.4,286047015.7,N
1498441195.3,286047017.3,N
1498441215.1,286047017.4,N
1498441235.8,286047019.0,N
1498441255.7,286047018.0,N
1498441275.5,286047018.1,N
1498441295.3,286047017.6,N
1498441315.2,286047019.6,N
1498441335.9,286047019.9,N
1498441355.7,286047019.9,N
1498441375.6,286047020.4,N
1498441395.4,286047017.6,N
1498441415.2,286047015.7,N
1498441435.0,286047018.6,N
1498441436.0,286047018.6,N
1498441455.8,286047017.4,N
1498441475.6,286047017.8,N
1498441495.4,286047018.0,N
1498441515.3,286047018.0,N
1498441535.1,286047018.1,N
1498441555.8,286047017.3,N
1498441575.7,286047018.1,N
1498441595.5,286047018.1,N
1498441615.3,286047020.0,N
1498441635.2,286047019.3,N
1498441655.9,286047017.5,N
1498441675.7,286047018.5,N
1498441695.6,286047018.4,N
1498441715.4,286047014.3,N
1498441735.2,286047014.2,N
1498441755.0,286047018.2,N
1498441756.0,286047018.2,N
1498441775.8,286047014.6,N
1498441795.6,286047015.5,N
1498441815.4,286047012.7,N
1498441835.3,286047012.6,N
1498441855.1,286047015.5,N
1498441875.8,286047011.0,N
1498441895.7,286047011.9,N
1498441915.5,286047011.3,N
1498441935.3,286047011.5,N
1498441955.2,286047012.1,N
1498441975.9,286047009.8,N
1498441995.7,286047008.9,N
1498442015.6,286047009.1,N
1498442035.4,286047008.5,N
1498442055.2,286047010.8,N
1498442075.0,286047008.5,N
1498442076.0,286047008.5,N
1498442095.8,286047009.0,N
1498442115.6,286047007.0,N
1498442135.4,286047009.2,N
1498442155.3,286047006.3,N
1498442175.1,286047006.5,N
1498442195.8,286047007.3,N
1498442215.7,286047006.4,N
1498442235.5,286047005.8,N
1498442255.3,286047005.9,N
1498442275.2,286047003.0,N
1498442295.9,286047005.2,N
1498442315.7,286047008.9,N
1498442335.6,286047008.8,N
1498442355.4,286047008.2,N
1498442375.2,286047008.7,N
1498442395.0,286047006.9,N
1498442395.9,286047006.9,N
